Location: Calvatone
(45.1167°N, 10.4333°E)
Time: 09:30:35
(UTC+00:00)

Cosmos 2279 Rocket - Pass Details

Date: 28 January 2023
Orbit: 964 x 978 km, 82.9° (Epoch: 28 March)

Event Time Altitude Azimuth Distance (km) Brightness Sun altitude
Rises 17:21:52 0° 196° (SSW) 3,637 7.4 -11.1°
Reaches altitude 10° 17:24:24 10° 200° (SSW) 2,695 6.8 -11.6°
Maximum altitude 17:30:30 63° 281° (W) 1,071 4.5 -12.6°
Drops below altitude 10° 17:36:41 10° 3° (N) 2,719 6.2 -13.7°
Sets 17:39:14 0° 6° (N) 3,672 6.8 -14.1°
